Retour au catalogue

STARLINK-30136

ActifCommunicationsVLEO
NORAD 56844·PAYLOAD·🇺🇸 United States

Lancé Jun 4, 2023 depuis Cape Canaveral Space Force Station

Loading…

Prochains Passages (prochaines 24 heures)

TLE

FraisSource: CelesTrak SupGP

Époque: Sep 14, 2026, 21:31 UTC

1 56844C 23079X   26257.89701389 -.00029185  00000+0 -10573-2 0  2576
2 56844  42.9999 118.4508 0001153 257.1440 134.5791 15.27587244    17

Suivez STARLINK-30136 en temps réel avec AllMySat

Download on the App Store